Inquirer Daily News

Weather

Get conditions and forecasts for any City, State, ZIP code or Country:  
Northeast Philadelphia, PA
on Thursday, February 28, 2013

Thursday
Previous Day Next Day
Daily Summary
 ActualAverage (KTTN)Record (KTTN)
Temperature
Mean Temperature °F 37°F  
Max Temperature 46°F 46°F 69°F (1903)
Min Temperature 37°F 28°F 1°F (1934)
Degree Days
Heating Degree Days 24 28  
Month to date heating degree days 867  
Since 1 July heating degree days 3814  
Cooling Degree Days 0 0  
Month to date cooling degree days 0  
Year to date cooling degree days 0  
Moisture
Dew Point 31°F   
Average Humidity 63    
Maximum Humidity 76    
Minimum Humidity 42    
Precipitation
Precipitation 0.00 in 0.10 in 1.70 in (1902)
Month to date precipitation 2.31  
Year to date precipitation 5.47  
Wind
Wind Speed 7 mph   
Max Wind Speed 16 mph   
Max Gust Speed 24 mph   
Visibility 10 miles   
Events Rain   

Key: T is trace of precipitation, MM is missing value
Source: NWS Daily Summary
Time(EST)TemperatureDew PointHumidity Pressure Visibility Wind DirectionWind SpeedGust SpeedPrecipitationEvents Conditions
12:54 AM 46.0°F 33.1°F 61% 29.64 in 10.0 miles WSW 6.9 mph - N/A   Overcast
1:54 AM 45.0°F 33.1°F 63% 29.64 in 10.0 miles Calm Calm - N/A   Overcast
2:54 AM 44.1°F 33.1°F 65% 29.64 in 10.0 miles West 3.5 mph - N/A   Overcast
3:54 AM 44.1°F 33.1°F 65% 29.63 in 10.0 miles WNW 3.5 mph - N/A   Overcast
4:54 AM 43.0°F 33.1°F 68% 29.64 in 10.0 miles WNW 6.9 mph - 0.00 in   Overcast
5:54 AM 42.1°F 34.0°F 73% 29.64 in 10.0 miles West 4.6 mph - 0.00 in   Overcast
6:54 AM 42.1°F 34.0°F 73% 29.65 in 10.0 miles West 5.8 mph - N/A   Overcast
7:54 AM 42.1°F 35.1°F 76% 29.67 in 10.0 miles WNW 9.2 mph - N/A   Overcast
8:30 AM 42.8°F 35.6°F 76% 29.66 in 10.0 miles West 4.6 mph - 0.00 in Rain Light Rain
8:54 AM 43.0°F 35.1°F 74% 29.66 in 10.0 miles WNW 5.8 mph - 0.00 in   Overcast
9:54 AM 44.1°F 33.1°F 65% 29.66 in 10.0 miles WNW 6.9 mph - 0.00 in   Overcast
10:54 AM 46.0°F 30.9°F 56% 29.63 in 10.0 miles NW 9.2 mph - N/A   Overcast
11:54 AM 46.0°F 30.0°F 54% 29.62 in 10.0 miles West 11.5 mph - N/A   Overcast
12:54 PM 45.0°F 28.0°F 52% 29.61 in 10.0 miles WNW 9.2 mph - N/A   Overcast
1:54 PM 44.1°F 27.0°F 51% 29.61 in 10.0 miles WNW 5.8 mph - 0.00 in Rain Light Rain
2:54 PM 46.4°F 26.6°F 46% 29.60 in 10.0 miles WNW 9.2 mph - N/A   Overcast
3:54 PM 45.0°F 23.0°F 42% 29.60 in 10.0 miles NW 8.1 mph - N/A   Mostly Cloudy
4:54 PM 45.0°F 24.1°F 44% 29.60 in 10.0 miles West 9.2 mph - N/A   Mostly Cloudy
5:54 PM 43.0°F 26.1°F 51% 29.62 in 10.0 miles NW 10.4 mph - N/A   Overcast
6:54 PM 42.1°F 28.0°F 58% 29.65 in 10.0 miles WNW 11.5 mph 24.2 mph N/A   Overcast
7:54 PM 39.2°F 30.2°F 70% 29.66 in 10.0 miles WNW 16.1 mph 24.2 mph N/A   Overcast
8:54 PM 39.0°F 30.9°F 73% 29.68 in 10.0 miles WNW 8.1 mph - N/A   Overcast
9:54 PM 37.9°F 30.9°F 76% 29.68 in 10.0 miles WNW 11.5 mph - N/A   Overcast
10:54 PM 37.0°F 30.0°F 76% 29.67 in 10.0 miles WNW 6.9 mph - N/A   Mostly Cloudy
11:54 PM 37.0°F 30.0°F 76% 29.67 in 10.0 miles WNW 10.4 mph - N/A   Clear
Astronomy
Sunrise:06:34 AM (EST) Moon Rise:09:15 PM (EST)2/28
Sunset:05:51 PM (EST) Moon Set:07:42 AM (EST)2/28
Moon Phase
Feb. 28 Mar. 04 Mar. 11 Mar. 19 Mar. 27

Copyright © 2014 The Weather Underground, Inc.